User: anonymous   Login
Location: South Tamworth Observatory
(43.8246°N, 71.3026°W)
Time: 16:24:27
(UTC-04:00)
Language:

Cosmos 2208 Rocket - Orbit

View from above orbital plane
View from above orbital plane
View from above satellite
View from above satellite

Ground track
Ground track

The orbit data is extracted from the following two-line orbital elements,

1 22081U 92053B   17230.46036488  .00000009  00000-0  12854-4 0  9997
2 22081  74.0461 323.7055 0037106 277.7366  81.9572 14.33386288307768
Epoch (UTC): 18 August 2017 11:02:55
Eccentricity: 0.0037106
inclination: 74.0461°
perigee height: 754 km
apogee height: 807 km
right ascension of ascending node: 323.7055°
argument of perigee: 277.7366°
revolutions per day: 14.33386288
mean anomaly at epoch: 81.9572°
orbit number at epoch: 30776

The dashed part of the orbit path shows where the satellite is in the earth's shadow,  

DLR